Tracking 30415 objects as of 14-May-2025
HD Live streaming from Space Station
objects crossing your sky now

THORAD AGENA D DEB

Track THORAD AGENA D DEB now!
10-day predictions


NORAD ID: 4970
Int'l Code: 1970-025GQ
Perigee: 1,017.3 km
Apogee: 1,071.7 km
Inclination: 99.9 °
Period: 105.9 minutes
Semi major axis: 7415 km
RCS: 0.025 m2 (small)
Launch date: April 8, 1970
Source: United States (US)
Launch site: AIR FORCE WESTERN TEST RANGE (AFWTR)

Note: This is SATELLITE DEBRIS
Your satellite tracking list
Your tracking list is empty




NASA's NSSDC Master Catalog

Two Line Element Set (TLE):
1 04970U 70025GQ  25133.82306965  .00000449  00000-0  66600-3 0  9995
2 04970  99.9118  88.3722 0036721 147.1940 290.1740 13.59543646720282
Source of the keplerian elements: AFSPC